Location: Celina Elementary School
(33.3262°N, 96.7767°W)
Time: 09:06:28
(UTC+00:00)

Cosmos 841 Rocket - Pass Details

Date: 26 November 2021
Orbit: 747 x 772 km, 74.0° (Epoch: 19 January)

Event Time Altitude Azimuth Distance (km) Brightness Sun altitude
Exits shadow 12:07:06 - 340° (NNW) 2,919 6.2 -12.8°
Reaches altitude 10° 12:08:46 10° 338° (NNW) 2,269 5.6 -12.5°
Maximum altitude 12:13:52 70° 256° (WSW) 797 3.4 -11.5°
Drops below altitude 10° 12:18:59 10° 173° (S) 2,268 6.3 -10.5°
Sets 12:21:21 0° 171° (S) 3,192 7.1 -10.0°
